Weather History for Hermiston, OR

Change the Weather History Date:

Monday, November 7, 2011

  Actual Average Record
Temperature  
Mean Temperature 36 °F -  
Max Temperature 52 °F 52 °F 69 °F (2006)
Min Temperature 19 °F 34 °F 11 °F (1936)
Degree Days  
Heating Degree Days 30    
Moisture  
Dew Point 28 °F    
Average Humidity 74    
Maximum Humidity 96    
Minimum Humidity 49    
Precipitation  
Precipitation 0.00 in - - ()
Sea Level Pressure  
Sea Level Pressure 30.24 in    
Wind  
Wind Speed 3 mph (SSW)    
Max Wind Speed 8 mph    
Max Gust Speed -    
Visibility 10 miles    
Events      
Averages and records for this station are not official NWS values.
T = Trace of Precipitation, MM = Missing Value Source: NWS Daily Summary

Daily Weather History Graph

Daily Weather History Graph

Search for Another Location

Airport:

Trip Planner

Search our weather history database for the weather conditions in past years. The results will help you decide how hot, cold, wet, or windy it might be!

Date:

Astronomy

Nov. 07, 2011 Rise Set
Actual Time 6:45 AM PST 4:35 PM PST
Civil Twilight 6:13 AM PST 5:06 PM PST
Nautical Twilight 5:38 AM PST 5:42 PM PST
Astronomical Twilight 5:03 AM PST 6:17 PM PST
Moon 2:53 PM PST (11/7) 3:46 AM PST (11/7)
Length of Visible Light 10h 53m
Length of Day
9h 49m
Waxing Gibbous, 92% of the Moon is Illuminated
Nov 7
Waxing Gibbous
Nov 10
Full
Nov 18
Last Quarter
Nov 24
New
Dec 2
First Quarter

Hourly Weather History & Observations

Time (PST) Temp. Windchill Dew Point Humidity Pressure Visibility Wind Dir Wind Speed Gust Speed Precip Events Conditions
12:53 AM 24.1 °F 19.7 °F 21.9 °F 91% 30.21 in 10.0 mi SSE 3.5 mph - N/A   Clear
1:53 AM 21.0 °F - 19.0 °F 92% 30.21 in 10.0 mi Calm Calm - N/A   Clear
2:53 AM 19.0 °F - 18.0 °F 96% 30.22 in 10.0 mi Calm Calm - N/A   Clear
4:53 AM 21.9 °F - 21.0 °F 96% 30.22 in 10.0 mi Calm Calm - N/A   Clear
5:53 AM 21.9 °F - 19.0 °F 89% 30.23 in 10.0 mi Calm Calm - N/A   Clear
6:53 AM 24.1 °F 19.7 °F 21.9 °F 91% 30.24 in 10.0 mi SSE 3.5 mph - N/A   Mostly Cloudy
7:53 AM 30.0 °F 26.5 °F 28.0 °F 92% 30.25 in 10.0 mi South 3.5 mph - N/A   Overcast
8:53 AM 35.1 °F - 28.9 °F 78% 30.25 in 10.0 mi Calm Calm - N/A   Overcast
9:53 AM 39.0 °F - 28.9 °F 67% 30.25 in 10.0 mi Calm Calm - N/A   Overcast
10:53 AM 43.0 °F 41.3 °F 30.9 °F 62% 30.25 in 10.0 mi NW 3.5 mph - N/A   Partly Cloudy
11:53 AM 46.0 °F - 32.0 °F 58% 30.24 in 10.0 mi Calm Calm - N/A   Clear
12:53 PM 48.9 °F - 33.1 °F 54% 30.22 in 10.0 mi Calm Calm - N/A   Scattered Clouds
1:53 PM 51.1 °F - 33.1 °F 50% 30.21 in 10.0 mi NW 3.5 mph - N/A   Clear
3:53 PM 52.0 °F - 33.1 °F 49% 30.22 in 10.0 mi WSW 6.9 mph - N/A   Clear
4:53 PM 50.0 °F - 33.1 °F 52% 30.22 in 10.0 mi WSW 4.6 mph - N/A   Mostly Cloudy
6:53 PM 42.1 °F 37.7 °F 32.0 °F 67% 30.24 in 10.0 mi South 6.9 mph - N/A   Partly Cloudy
7:53 PM 39.9 °F 34.5 °F 30.9 °F 70% 30.25 in 10.0 mi South 8.1 mph - N/A   Clear
8:53 PM 39.9 °F 34.5 °F 32.0 °F 73% 30.25 in 10.0 mi South 8.1 mph - N/A   Overcast
9:53 PM 41.0 °F 36.4 °F 32.0 °F 70% 30.25 in 10.0 mi South 6.9 mph - N/A   Overcast
10:53 PM 37.9 °F 32.7 °F 32.0 °F 79% 30.25 in 10.0 mi South 6.9 mph - N/A   Clear
11:53 PM 37.0 °F 31.0 °F 30.9 °F 79% 30.26 in 10.0 mi South 8.1 mph - N/A   Clear